Regional Weather Roundup
Issued by NWS Upton, NY

Current Version | Previous Version | Text Only | Print | Product List | Glossary On
Versions: 1 2 3 4 5 6 7 8 9 10 11 12 13 14 15 16 17 18 19 20 21 22 23 24 25 26 27 28 29 30 31 32 33 34 35 36 37 38 39 40 41 42 43 44 45 46 47 48 49 50
532 ASUS41 KOKX 190508 RWROKX REGIONAL WEATHER ROUNDUP NATIONAL WEATHER SERVICE NEW YORK NY 100 AM EDT SAT AUG 19 2017 NOTE: "FAIR" INDICATES FEW OR NO CLOUDS BELOW 12,000 FEET WITH NO SIGNIFICANT WEATHER AND/OR OBSTRUCTIONS TO VISIBILITY. NYZ071-072-176-178-NJZ106-104-190600- NEW YORK CITY METRO AREA CITY SKY/WX TMP DP RH WIND PRES REMARKS Central Park FAIR 74 72 93 W5 29.82F Bronx Bot Gard N/A 73 70 88 W2 29.80F LaGuardia APRT LGT RAIN 76 72 87 SW8 29.78F Kennedy INTL MOCLDY 73 73 100 SW10 29.80F Breezy Point N/A 73 N/A N/A W5 N/A Newark/Liberty CLOUDY 74 72 93 SW8 29.79F Teterboro FAIR 74 72 93 SW3 29.78F $$ NYZ177-179-078>081-190600- LONG ISLAND NEW YORK CITY SKY/WX TMP DP RH WIND PRES REMARKS Jones Beach N/A 73 N/A N/A W7 N/A Matinecock PT N/A 73 N/A N/A SW9 N/A Farmingdale FAIR 74 71 91 W7 29.79F MacArthur/ISP FAIR 75 74 96 W8 29.79F Shirley CLOUDY 78 77 96 W9 29.79F Mt Sinai Harb N/A N/A N/A N/A SW5 N/A Westhampton CLOUDY 76 74 93 SW8 29.80F FOG East Hampton CLOUDY 73 73 98 SW6 29.79F FOG Montauk N/A 75 75 100 SW9G18 29.80F $$ NYZ052-065-067-190600- HUDSON VALLEY CITY SKY/WX TMP DP RH WIND PRES REMARKS White Plains FAIR 73 71 93 S3 29.80F Larchmont Harb N/A 75 N/A N/A SW10 N/A Croton On Huds N/A 73 N/A N/A MISG N/A Newburgh CLOUDY 72 72 100 W6 29.82F Montgomery FAIR 72 70 93 CALM 29.80S FOG Poughkeepsie MOCLDY 72 70 93 CALM 29.78S Albany CLOUDY 72 65 78 W8 29.79F $$ NJZ001-105-106-008-010-013-015-019>022-104-190600- NEW JERSEY CITY SKY/WX TMP DP RH WIND PRES REMARKS Newark/Liberty CLOUDY 74 72 93 SW8 29.79F Teterboro FAIR 74 72 93 SW3 29.78F Caldwell MOCLDY 72 72 100 VRB3 29.80F Somerville FAIR 72 72 100 CALM 29.79F Linden FAIR 74 71 91 CALM 29.81F Perth Amboy N/A 73 N/A N/A W7 N/A Sussex CLOUDY 74 73 97 CALM 29.81F Andover N/A 73 71 93 CALM 29.82F Trenton CLOUDY 75 74 96 W5 29.81F FOG Millville FAIR 76 76 100 W6 29.83S Atlantic City MOCLDY 75 74 96 W6 29.82F Wrightstown CLOUDY 74 73 96 W7 29.79F Toms River FAIR 73 72 96 W7 29.81F Belmar FAIR 72 71 97 W8 29.81F $$ PAZ047>061-062-071-190600- EASTERN PENNSYLVANIA CITY SKY/WX TMP DP RH WIND PRES REMARKS Philadelphia CLOUDY 76 73 91 SW13 29.83S Allentown MOCLDY 72 70 93 MISG 29.83F Scranton FAIR 72 69 90 SW3 29.84F $$ CTZ002-004>006-009-010-012-RIZ004-006-007-MAZ004-011-015-190600- SOUTHERN NEW ENGLAND IN CT CITY SKY/WX TMP DP RH WIND PRES REMARKS Bradley INTL CLOUDY 76 75 97 CALM 29.77F Hartford FAIR 76 75 97 S8 29.76F Danbury CLOUDY 73 72 96 CALM 29.81F Wtrbury/Oxford LGT RAIN 72 71 97 VRB5 29.81F Norwalk Harbor N/A 73 N/A N/A SW8 N/A Bridgeport FAIR 75 71 87 SW7 29.78F Meriden FAIR 74 74 100 S6 29.78F New Haven FAIR 74 72 93 SW5 29.79F Chester MOCLDY 73 73 100 SW5 29.80F Groton CLOUDY 74 72 93 SW7 29.78F Wilimantic MOCLDY 76 76 100 CALM 29.78F IN RI CITY SKY/WX TMP DP RH WIND PRES REMARKS Providence CLOUDY 75 75 100 S8 29.79F FOG Block Island LGT RAIN 74 73 97 SW18G25 29.80 FOG Westerly NOT AVBL IN MA CITY SKY/WX TMP DP RH WIND PRES REMARKS Boston FOG 73 73 100 S6 29.77F VSB 3/4 Worcester CLOUDY 73 71 93 S9 29.81F Westfield FAIR 74 74 100 CALM 29.77F Provincetown LGT RAIN 72 71 97 S13 29.82F FOG Nantucket MOCLDY 71 70 96 S21 29.81F $$ ANZ330-335-338-340-345-350-353-355-190600- COASTAL MARINE OBSERVATIONS STATION/POSITION TIME SKY/WX TEMP WIND PRES VSBY WAVE AIR SEA DIR/SP/G HT/PER (UTC) (F) (DEG/KT/KT) (MB) (MI) (FT/S) NY HARB ENTRANCE 0350 76 76 230/ 17/ 21 1008.6 4/ 6 GREAT SOUTH BAY 0415 77 78 260/ 16/ 17 N/A 23 SSW MONTAUK P 0350 74 71 1009.9 5/ 6 15 E BARNEGAT LI 0430 76 N/A 5/ 6 HUDSON CANYON 0350 77 74 200/ 19/ 21 1009.9 5/ 5 KINGS POINT 0424 75 74 250/ 8/ 9 1009.1 EXECUTION ROCKS NOT AVBL WESTERN LI SOUND NOT AVBL CENTRAL LI SOUND NOT AVBL EASTERN LI SOUND NOT AVBL ROBBINS REEF 0430 250/ 9/ 11 1009.9 $$ >>>>>>>>>>>>>>>>>>>>>>>>>>>> KEY <<<<<<<<<<<<<<<<<<<<<<<<<<< > < > SKY/WX - Sky Condition/Present Weather < > TMP - Temperature in Fahrenheit < > DP - Dew Point in Fahrenheit < > RH - Relative Humidity in Percent < > WIND - Direction (from) and Speed in MPH < > PRES - Mean Sea Level Pressure (inches of Hg) < > WCI - Wind Chill Index < > VSB - VISIBILITY IN MILES < > HX - HEAT INDEX < > TC - TEMPERATURE IN CELSIUS < > VRB - VARIABLE WIND DIRECTION < > < >>>>>>>>>>>>>>>>>>>>>>>>>>>> KEY <<<<<<<<<<<<<<<<<<<<<<<<<<<

USA.gov is the U.S. government's official web portal to all federal, state and local government web resources and services.